Change the Weather History Date:

Friday, October 25, 2013

  Actual Average Record
Temperature  
Mean Temperature 53 °F -  
Max Temperature 62 °F 71 °F 86 °F (2014)
Min Temperature 44 °F 53 °F 35 °F (2005)
Degree Days  
Heating Degree Days 12    
Growing Degree Days 3 (Base 50)    
Moisture  
Dew Point 34 °F    
Average Humidity 51    
Maximum Humidity 66    
Minimum Humidity 36    
Precipitation  
Precipitation 0.00 in - - ()
Sea Level Pressure  
Sea Level Pressure 30.38 in    
Wind  
Wind Speed 11 mph (East)    
Max Wind Speed 20 mph    
Max Gust Speed 26 mph    
Visibility 10 miles    
Events      
Averages and records for this station are not official NWS values.
T = Trace of Precipitation, MM = Missing Value Source: NWS Daily Summary

Daily Weather History Graph

Daily Weather History Graph

Search for Another Location

Airport or City:

Trip Planner

Search our weather history database for the weather conditions in past years. The results will help you decide how hot, cold, wet, or windy it might be!

Date:

Astronomy

Oct. 25, 2013 Rise Set
Actual Time 7:34 AM CDT 6:36 PM CDT
Civil Twilight 7:09 AM CDT 7:01 PM CDT
Nautical Twilight 6:40 AM CDT 7:30 PM CDT
Astronomical Twilight 6:11 AM CDT 7:59 PM CDT
Moon No Moon Rise 1:11 PM CDT (10/25)
Length of Visible Light 11h 52m
Length of Day
11h 01m
Waning Gibbous, 62% of the Moon is Illuminated
Oct 25
Waning Gibbous
Oct 26
Last Quarter
Nov 3
New
Nov 9
First Quarter
Nov 17
Full

Hourly Weather History & Observations

Time (CDT) Temp. Windchill Dew Point Humidity Pressure Visibility Wind Dir Wind Speed Gust Speed Precip Events Conditions
12:15 AM 51.8 °F - 37.4 °F 58% 30.33 in 10.0 mi NNE 8.1 mph - N/A   Clear
12:35 AM 50.0 °F - 37.4 °F 62% 30.33 in 10.0 mi NE 8.1 mph - N/A   Clear
12:55 AM 50.0 °F - 37.4 °F 62% 30.33 in 10.0 mi NE 6.9 mph - N/A   Clear
1:15 AM 51.8 °F - 37.4 °F 58% 30.34 in 10.0 mi NE 9.2 mph - N/A   Clear
1:35 AM 51.8 °F - 37.4 °F 58% 30.34 in 10.0 mi ENE 11.5 mph - N/A   Clear
1:55 AM 51.8 °F - 37.4 °F 58% 30.35 in 10.0 mi ENE 10.4 mph - N/A   Clear
2:15 AM 51.8 °F - 37.4 °F 58% 30.35 in 10.0 mi East 10.4 mph - N/A   Clear
2:35 AM 51.8 °F - 37.4 °F 58% 30.36 in 10.0 mi East 11.5 mph - N/A   Clear
2:55 AM 51.8 °F - 37.4 °F 58% 30.36 in 10.0 mi East 11.5 mph - N/A   Clear
3:15 AM 50.0 °F - 37.4 °F 62% 30.37 in 10.0 mi East 12.7 mph - N/A   Clear
3:35 AM 50.0 °F - 35.6 °F 58% 30.37 in 10.0 mi East 12.7 mph - N/A   Clear
3:55 AM 50.0 °F - 35.6 °F 58% 30.38 in 10.0 mi East 12.7 mph 18.4 mph N/A   Clear
4:15 AM 50.0 °F - 35.6 °F 58% 30.38 in 10.0 mi East 12.7 mph - N/A   Clear
4:35 AM 48.2 °F - 33.8 °F 58% 30.39 in 10.0 mi East 13.8 mph 18.4 mph N/A   Clear
4:55 AM 48.2 °F - 33.8 °F 58% 30.40 in 10.0 mi East 13.8 mph - N/A   Clear
5:15 AM 48.2 °F - 32.0 °F 54% 30.40 in 10.0 mi East 15.0 mph - N/A   Clear
5:35 AM 48.2 °F - 32.0 °F 54% 30.41 in 10.0 mi East 15.0 mph 19.6 mph N/A   Clear
5:55 AM 48.2 °F - 30.2 °F 50% 30.41 in 10.0 mi East 13.8 mph - N/A   Clear
6:15 AM 46.4 °F 40.4 °F 30.2 °F 53% 30.42 in 10.0 mi East 13.8 mph - N/A   Clear
6:35 AM 46.4 °F 40.7 °F 30.2 °F 53% 30.42 in 10.0 mi East 12.7 mph - N/A   Clear
6:55 AM 46.4 °F 41.5 °F 30.2 °F 53% 30.43 in 10.0 mi East 10.4 mph - N/A   Clear
7:15 AM 46.4 °F 41.5 °F 30.2 °F 53% 30.44 in 10.0 mi East 10.4 mph - N/A   Clear
7:35 AM 46.4 °F 41.9 °F 30.2 °F 53% 30.44 in 10.0 mi East 9.2 mph - N/A   Clear
7:55 AM 44.6 °F 39.2 °F 30.2 °F 57% 30.45 in 10.0 mi East 10.4 mph - N/A   Clear
8:15 AM 46.4 °F 41.9 °F 30.2 °F 53% 30.45 in 10.0 mi East 9.2 mph - N/A   Clear
8:35 AM 46.4 °F 40.4 °F 30.2 °F 53% 30.46 in 10.0 mi East 13.8 mph - N/A   Clear
8:55 AM 46.4 °F 40.4 °F 30.2 °F 53% 30.47 in 10.0 mi ESE 13.8 mph - N/A   Clear
9:15 AM 48.2 °F - 30.2 °F 50% 30.47 in 10.0 mi East 15.0 mph 20.7 mph N/A   Clear
9:35 AM 48.2 °F - 30.2 °F 50% 30.48 in 10.0 mi East 17.3 mph 25.3 mph N/A   Clear
9:55 AM 50.0 °F - 28.4 °F 43% 30.48 in 10.0 mi East 17.3 mph - N/A   Clear
10:15 AM 51.8 °F - 28.4 °F 41% 30.47 in 10.0 mi East 18.4 mph 26.5 mph N/A   Clear
10:35 AM 51.8 °F - 28.4 °F 41% 30.47 in 10.0 mi ESE 19.6 mph 26.5 mph N/A   Clear
10:55 AM 53.6 °F - 28.4 °F 38% 30.47 in 10.0 mi ESE 12.7 mph 23.0 mph N/A   Clear
11:15 AM 53.6 °F - 28.4 °F 38% 30.47 in 10.0 mi ESE 15.0 mph - N/A   Clear
11:35 AM 55.4 °F - 30.2 °F 38% 30.47 in 10.0 mi East 15.0 mph 20.7 mph N/A   Clear
11:55 AM 55.4 °F - 30.2 °F 38% 30.47 in 10.0 mi East 15.0 mph - N/A   Clear
12:15 PM 57.2 °F - 30.2 °F 36% 30.46 in 10.0 mi East 12.7 mph 18.4 mph N/A   Clear
12:35 PM 57.2 °F - 30.2 °F 36% 30.45 in 10.0 mi East 13.8 mph 17.3 mph N/A   Clear
12:55 PM 57.2 °F - 32.0 °F 38% 30.44 in 10.0 mi East 15.0 mph - N/A   Clear
1:15 PM 59.0 °F - 33.8 °F 39% 30.42 in 10.0 mi ESE 10.4 mph - N/A   Clear
1:35 PM 59.0 °F - 33.8 °F 39% 30.41 in 10.0 mi SE 13.8 mph - N/A   Clear
1:55 PM 59.0 °F - 33.8 °F 39% 30.40 in 10.0 mi ESE 11.5 mph 17.3 mph N/A   Clear
2:15 PM 60.8 °F - 33.8 °F 36% 30.39 in 10.0 mi East 6.9 mph - N/A   Clear
2:35 PM 60.8 °F - 35.6 °F 39% 30.38 in 10.0 mi ESE 8.1 mph - N/A   Clear
2:55 PM 60.8 °F - 35.6 °F 39% 30.37 in 10.0 mi SE 6.9 mph - N/A   Clear
3:15 PM 62.6 °F - 35.6 °F 37% 30.36 in 10.0 mi East 9.2 mph - N/A   Clear
3:35 PM 62.6 °F - 35.6 °F 37% 30.36 in 10.0 mi ESE 11.5 mph - N/A   Clear
3:55 PM 62.6 °F - 35.6 °F 37% 30.35 in 10.0 mi ESE 11.5 mph - N/A   Clear
4:15 PM 62.6 °F - 37.4 °F 39% 30.35 in 10.0 mi ESE 10.4 mph - N/A   Clear
4:35 PM 62.6 °F - 37.4 °F 39% 30.34 in 10.0 mi East 10.4 mph - N/A   Clear
4:55 PM 62.6 °F - 37.4 °F 39% 30.34 in 10.0 mi SE 9.2 mph - N/A   Clear
5:15 PM 62.6 °F - 37.4 °F 39% 30.34 in 10.0 mi SE 8.1 mph - N/A   Clear
5:35 PM 60.8 °F - 37.4 °F 42% 30.33 in 10.0 mi ESE 10.4 mph - N/A   Clear
5:55 PM 60.8 °F - 35.6 °F 39% 30.32 in 10.0 mi ESE 10.4 mph - N/A   Clear
6:15 PM 59.0 °F - 37.4 °F 45% 30.32 in 10.0 mi ESE 10.4 mph - N/A   Clear
6:35 PM 57.2 °F - 37.4 °F 48% 30.32 in 10.0 mi ESE 8.1 mph - N/A   Clear
6:55 PM 55.4 °F - 37.4 °F 51% 30.32 in 10.0 mi ESE 8.1 mph - N/A   Clear
7:15 PM 53.6 °F - 37.4 °F 54% 30.33 in 10.0 mi ESE 6.9 mph - N/A   Clear
7:35 PM 53.6 °F - 37.4 °F 54% 30.33 in 10.0 mi ESE 6.9 mph - N/A   Clear
7:55 PM 51.8 °F - 37.4 °F 58% 30.33 in 10.0 mi ESE 6.9 mph - N/A   Clear
8:15 PM 51.8 °F - 37.4 °F 58% 30.33 in 10.0 mi East 5.8 mph - N/A   Clear
8:35 PM 50.0 °F - 37.4 °F 62% 30.33 in 10.0 mi ESE 5.8 mph - N/A   Clear
8:55 PM 50.0 °F - 37.4 °F 62% 30.33 in 10.0 mi ESE 6.9 mph - N/A   Clear
9:15 PM 50.0 °F - 37.4 °F 62% 30.32 in 10.0 mi ESE 8.1 mph - N/A   Clear
9:35 PM 50.0 °F - 37.4 °F 62% 30.32 in 10.0 mi ESE 8.1 mph - N/A   Clear
9:55 PM 48.2 °F - 37.4 °F 66% 30.32 in 10.0 mi ESE 8.1 mph - N/A   Clear
10:15 PM 48.2 °F - 37.4 °F 66% 30.32 in 10.0 mi ESE 8.1 mph - N/A   Clear
10:35 PM 48.2 °F - 37.4 °F 66% 30.33 in 10.0 mi ESE 8.1 mph - N/A   Clear
10:55 PM 48.2 °F - 37.4 °F 66% 30.32 in 10.0 mi ESE 9.2 mph - N/A   Clear
11:15 PM 48.2 °F - 37.4 °F 66% 30.30 in 10.0 mi ESE 10.4 mph - N/A   Clear
11:35 PM 48.2 °F - 37.4 °F 66% 30.30 in 10.0 mi ESE 8.1 mph - N/A   Clear
11:55 PM 48.2 °F - 37.4 °F 66% 30.30 in 10.0 mi ESE 9.2 mph - N/A   Clear